EW4885 Weather Reports


time (UTC)temp
F
wind
direction
speed
knots
gust
knots
rain 1hr
in
rain 24hr
in
rain mn
in
humidity
%
barometer
mb
20260505124534 64 179 5.2 11.3 0.00 0.43 0.33 76 1008.1
20260505123030 63 185 7.0 12.2 0.00 0.43 0.33 79 1008.0
20260505121534 63 161 6.1 12.2 0.00 0.43 0.33 78 1008.1
20260505120034 64 178 7.8 14.8 0.00 0.43 0.33 81 1008.2
20260505114521 62 147 7.0 13.0 0.00 0.49 0.33 82 1008.4
20260505113015 62 165 7.8 13.9 0.00 0.49 0.33 84 1008.6
20260505111517 61 147 7.8 15.6 0.00 0.49 0.33 87 1008.7
20260505101600 57 159 5.2 8.7 0.00 0.54 0.33 93 1009.0
20260505100059 56 183 4.3 9.6 0.00 0.54 0.33 93 1009.0
20260505094557 56 187 8.7 13.0 0.01 0.55 0.33 93 1009.0
20260505093100 56 174 5.2 10.4 0.01 0.55 0.33 93 1008.9
20260505091606 56 173 4.3 10.4 0.02 0.55 0.33 93 1008.8
20260505090054 56 199 6.1 11.3 0.02 0.55 0.33 93 1008.7
20260505084556 56 215 6.1 10.4 0.01 0.61 0.32 92 1008.7
20260505083058 56 173 4.3 11.3 0.01 0.61 0.32 93 1008.7
20260505081555 56 184 5.2 10.4 0.00 0.61 0.31 93 1008.7
20260505080051 56 198 2.6 6.1 0.00 0.61 0.31 94 1008.7
20260505074549 55 210 2.6 6.1 0.00 0.72 0.31 94 1008.7
20260505073054 55 163 2.6 4.3 0.00 0.72 0.31 95 1008.6
20260505071556 55 169 1.7 4.3 0.01 0.72 0.31 96 1008.5
20260505070041 54 123 0.9 3.5 0.01 0.72 0.31 96 1008.5
20260505064541 54 133 0.0 0.0 0.01 0.81 0.31 97 1008.5
20260505063038 53 232 0.0 0.0 0.01 0.81 0.31 96 1008.6
20260505061537 53 232 0.0 0.0 0.00 0.80 0.31 96 1008.6
20260505060046 53 232 0.0 0.0 0.00 0.80 0.31 97 1008.6
20260505054536 53 290 0.0 0.0 0.00 0.83 0.31 96 1008.6
20260505053032 53 290 0.0 0.0 0.01 0.83 0.31 97 1008.6
20260505051603 53 290 0.0 0.0 0.01 0.83 0.31 96 1008.6
20260505041549 52 103 0.0 0.0 0.01 0.83 0.30 96 1008.7
20260505040047 52 103 0.0 0.0 0.02 0.83 0.30 96 1008.9
20260505034544 52 103 0.0 0.0 0.03 0.83 0.30 96 1009.1
20260505033042 52 103 0.0 0.0 0.03 0.83 0.28 96 1009.3
20260505031551 52 69 0.0 0.0 0.06 0.83 0.28 96 1009.5
20260505030042 53 69 0.0 0.0 0.08 0.82 0.28 96 1009.4
20260505024540 53 69 0.0 0.0 0.07 0.80 0.27 96 1009.5
20260505023039 53 76 0.0 0.0 0.07 0.80 0.26 96 1009.6
20260505021537 53 92 0.0 0.0 0.05 0.76 0.23 96 1009.9
20260505020034 53 91 0.0 0.0 0.03 0.74 0.20 96 1010.1
20260505014533 53 116 0.0 0.0 0.04 0.73 0.20 96 1010.4
20260505013043 53 116 0.0 0.0 0.05 0.72 0.19 95 1010.4
20260505011532 53 116 0.0 0.0 0.06 0.72 0.18 96 1010.3
20260505010034 53 116 0.0 0.0 0.07 0.71 0.17 95 1010.4
20260505004530 53 116 0.0 0.0 0.08 0.69 0.16 95 1010.5
20260505003032 53 136 0.0 0.0 0.07 0.67 0.13 95 1010.6
20260505001527 53 152 0.0 0.0 0.09 0.65 0.12 95 1010.9
20260505000028 53 148 0.0 1.7 0.09 0.64 0.10 95 1010.9
20260504234524 53 155 1.7 3.5 0.07 0.61 0.08 95 1011.1
20260504233022 53 139 1.7 6.1 0.06 0.60 0.06 95 1011.2
20260504231520 53 144 1.7 5.2 0.03 0.56 0.03 95 1011.2
20260504230020 53 119 2.6 5.2 0.01 0.54 0.01 95 1011.3
20260504224521 53 168 1.7 5.2 0.01 0.54 0.01 95 1011.2
20260504223019 53 142 1.7 4.3 0.00 0.54 0.00 96 1011.3
20260504221517 53 154 0.9 2.6 0.00 0.54 0.00 95 1011.3
20260504220020 53 141 0.9 2.6 0.00 0.54 0.00 95 1011.3
20260504214521 52 69 0.0 1.7 0.00 0.54 0.54 95 1011.3
20260504213014 52 66 0.9 1.7 0.00 0.54 0.54 95 1011.3
20260504211524 52 66 0.0 0.0 0.00 0.54 0.54 95 1011.4
20260504210014 52 68 0.9 3.5 0.00 0.54 0.54 94 1011.1
20260504204517 53 111 0.9 2.6 0.00 0.54 0.54 94 1011.2
20260504203012 53 158 0.0 2.6 0.00 0.54 0.54 94 1011.4
20260504201510 53 128 0.9 2.6 0.00 0.54 0.54 94 1011.5
20260504200010 53 202 0.0 0.0 0.00 0.54 0.54 94 1011.4
20260504194510 53 202 0.0 0.9 0.00 0.54 0.54 92 1011.5
20260504193044 54 202 0.0 1.7 0.00 0.54 0.54 92 1011.4
20260504191554 54 202 0.9 3.5 0.00 0.54 0.54 92 1011.3
20260504190046 54 221 1.7 4.3 0.00 0.54 0.54 92 1011.4
20260504184557 55 199 1.7 3.5 0.00 0.54 0.54 92 1011.3
20260504183043 55 219 1.7 4.3 0.00 0.54 0.54 92 1011.4
20260504181541 55 208 2.6 5.2 0.01 0.54 0.54 92 1011.4
20260504180042 55 184 4.3 7.0 0.01 0.54 0.54 92 1011.6
20260504174540 55 152 2.6 6.1 0.01 0.54 0.54 92 1011.5
20260504173037 56 163 3.5 7.0 0.02 0.54 0.54 92 1011.7
20260504171535 56 150 4.3 9.6 0.01 0.53 0.53 91 1011.9